Location: Kaiser
(34.0939°N, 117.4889°W)
Time: 03:13:39
(UTC+00:00)

CZ-4B R/B - Pass Details

Date: 29 October 2020
Orbit: 388 x 462 km, 97.6° (Epoch: 26 November)

Event Time Altitude Azimuth Distance (km) Brightness Sun altitude
Rises 12:03:05 0° 143° (SE) 2,481 5.7 -26.3°
Reaches altitude 10° 12:05:21 10° 129° (SE) 1,609 4.8 -25.8°
Maximum altitude 12:08:15 25° 73° (ENE) 966 3.7 -25.2°
Drops below altitude 10° 12:11:07 10° 16° (NNE) 1,606 4.4 -24.6°
Enters shadow 12:12:07 - 9° (N) 1,972 4.7 -24.4°
